EW3693 Weather Reports


Display with metric or nautical units.
time (UTC)temp
F
wind
direction
speed
MPH
gust
MPH
rain 1hr
in
rain 24hr
in
rain mn
in
humidity
%
barometer
mb
20260510150026 64 68 1.0 3.0 0.00 0.00 0.00 57 1011.5
20260510145026 65 0.0 0.0 0.00 0.00 0.00 56 1011.6
20260510144026 65 23 1.0 4.0 0.00 0.00 0.00 56 1011.8
20260510143026 64 0.0 3.0 0.00 0.00 0.00 56 1011.9
20260510142046 64 0.0 0.0 0.00 0.00 0.00 55 1012.1
20260510141027 64 0.0 2.0 0.00 0.00 0.00 61 1012.2
20260510140027 64 270 1.0 6.0 0.00 0.00 0.00 60 1012.3
20260510135026 64 315 3.0 5.0 0.00 0.00 0.00 58 1012.3
20260510134026 65 23 1.0 4.0 0.00 0.00 0.00 52 1012.3
20260510133026 66 0.0 2.0 0.00 0.00 0.00 56 1012.6
20260510132026 66 90 1.0 4.0 0.00 0.00 0.00 54 1012.7
20260510131026 68 338 4.0 9.0 0.00 0.00 0.00 56 1012.8
20260510130046 68 315 3.0 7.0 0.00 0.00 0.00 57 1012.9
20260510125026 68 338 2.0 5.0 0.00 0.00 0.00 58 1013.0
20260510124026 65 90 1.0 7.0 0.00 0.00 0.00 56 1013.0
20260510123026 67 0 4.0 9.0 0.00 0.00 0.00 60 1013.1
20260510122046 68 0 1.0 5.0 0.00 0.00 0.00 58 1013.3
20260510121026 68 0 5.0 11.0 0.00 0.00 0.00 54 1013.4
20260510120026 68 0 4.0 9.0 0.00 0.00 0.00 59 1013.5
20260510115027 66 0 2.0 8.0 0.00 0.00 0.00 61 1013.5
20260510114026 66 0 3.0 8.0 0.00 0.00 0.00 54 1013.6
20260510113026 67 0 5.0 9.0 0.00 0.00 0.00 61 1013.7
20260510112026 65 0 6.0 18.0 0.00 0.00 0.00 61 1013.8
20260510111026 66 338 2.0 8.0 0.00 0.00 0.00 57 1013.9
20260510110026 64 338 2.0 5.0 0.00 0.00 0.00 61 1014.0
20260510105026 67 0 7.0 11.0 0.00 0.00 0.00 65 1014.1
20260510104025 66 0 4.0 11.0 0.00 0.00 0.00 59 1014.2
20260510103026 63 0 6.0 14.0 0.00 0.00 0.00 67 1014.2
20260510102026 65 0 4.0 8.0 0.00 0.00 0.00 65 1014.3
20260510101026 63 0 8.0 13.0 0.00 0.00 0.00 67 1014.4
20260510100026 63 315 4.0 11.0 0.00 0.00 0.00 65 1014.3
20260510095026 65 0 6.0 11.0 0.00 0.00 0.00 65 1014.4
20260510094026 65 0 4.0 9.0 0.00 0.00 0.00 64 1014.4
20260510093025 64 0 5.0 9.0 0.00 0.00 0.00 67 1014.6
20260510092025 63 0 4.0 9.0 0.00 0.00 0.00 67 1014.6
20260510091025 63 0 3.0 7.0 0.00 0.00 0.00 67 1014.6
20260510090025 63 315 1.0 3.0 0.00 0.00 0.00 66 1014.7
20260510085026 63 315 4.0 9.0 0.00 0.00 0.00 65 1014.9
20260510084026 62 0 6.0 11.0 0.00 0.00 0.00 66 1014.8
20260510083025 63 315 3.0 11.0 0.00 0.00 0.00 67 1015.0
20260510082046 61 0 4.0 6.0 0.00 0.00 0.00 70 1015.1
20260510081046 60 0.0 1.0 0.00 0.00 0.00 72 1015.1
20260510080025 61 270 1.0 3.0 0.00 0.00 0.00 76 1015.2
20260510075025 60 248 1.0 2.0 0.00 0.00 0.00 75 1015.1
20260510074025 57 0.0 2.0 0.00 0.00 0.00 81 1015.2
20260510073026 55 0.0 0.0 0.00 0.00 0.00 79 1015.2
20260510072025 55 0.0 1.0 0.00 0.00 0.00 80 1015.3
20260510071106 54 0.0 2.0 0.00 0.00 0.00 80 1015.4
20260510070025 54 0.0 1.0 0.00 0.00 0.00 82 1015.4
20260510065025 53 0.0 0.0 0.00 0.00 0.00 83 1015.5
20260510064025 53 0.0 1.0 0.00 0.00 0.00 83 1015.5
20260510063025 52 0.0 1.0 0.00 0.00 0.00 84 1015.5
20260510062025 52 0.0 2.0 0.00 0.00 0.00 84 1015.7
20260510061025 52 225 1.0 3.0 0.00 0.00 0.00 84 1015.8
20260510060025 53 203 1.0 2.0 0.00 0.00 0.00 82 1015.8
20260510055025 54 0.0 2.0 0.00 0.00 0.00 81 1015.7
20260510054025 53 0.0 1.0 0.00 0.00 0.00 81 1015.7
20260510053025 52 0.0 0.0 0.00 0.00 0.00 86 1015.7
20260510052025 50 0.0 0.0 0.00 0.00 0.00 90 1015.8
20260510051024 49 0.0 0.0 0.00 0.00 0.00 89 1015.8
20260510050023 49 0.0 0.0 0.00 0.00 0.00 89 1016.0
20260510045024 50 0.0 0.0 0.00 0.00 0.00 89 1016.0
20260510044023 50 0.0 0.0 0.00 0.00 0.00 88 1016.1
20260510043044 50 0.0 0.0 0.00 0.00 0.00 87 1016.1
20260510042023 50 0.0 0.0 0.00 0.00 0.00 86 1016.2
20260510041024 50 0.0 0.0 0.00 0.00 0.00 85 1016.3
20260510040023 50 0.0 0.0 0.00 0.00 0.00 85 1016.4
20260510035023 50 0.0 1.0 0.00 0.00 0.00 85 1016.3
20260510034023 50 0.0 1.0 0.00 0.00 0.00 85 1016.4
20260510033024 50 0.0 1.0 0.00 0.00 0.00 85 1016.4
20260510032024 50 0.0 1.0 0.00 0.00 0.00 85 1016.5
20260510031023 50 0.0 0.0 0.00 0.00 0.00 84 1016.5
20260510030026 50 0.0 0.0 0.00 0.00 0.00 84 1016.7
20260510025026 50 0.0 1.0 0.00 0.00 0.00 84 1016.8
20260510024026 50 0.0 1.0 0.00 0.00 0.00 84 1016.8
20260510023045 50 0.0 0.0 0.00 0.00 0.00 84 1016.9
20260510022025 50 0.0 0.0 0.00 0.00 0.00 84 1016.9
20260510021025 50 0.0 0.0 0.00 0.00 0.00 84 1017.0
20260510020026 50 0.0 0.0 0.00 0.00 0.00 83 1017.0
20260510015025 51 0.0 0.0 0.00 0.00 0.00 83 1017.1
20260510014026 51 0.0 1.0 0.00 0.00 0.00 84 1017.1
20260510013025 51 0.0 1.0 0.00 0.00 0.00 85 1017.3
20260510012025 50 0.0 1.0 0.00 0.00 0.00 87 1017.3
20260510011025 50 0.0 0.0 0.00 0.00 0.00 88 1017.4
20260510010025 50 0.0 0.0 0.00 0.00 0.00 87 1017.5
20260510005025 51 0.0 0.0 0.00 0.00 0.00 86 1017.5
20260510004046 52 0.0 1.0 0.00 0.00 0.00 85 1017.5
20260510003025 52 0.0 0.0 0.00 0.00 0.00 84 1017.7
20260510001025 53 0.0 1.0 0.00 0.00 0.00 82 1017.9
20260510000045 52 68 1.0 3.0 0.00 0.00 0.00 82 1018.2
20260509235025 53 90 1.0 2.0 0.00 0.00 0.00 81 1018.3
20260509234025 52 68 1.0 3.0 0.00 0.00 0.00 80 1018.5
20260509233025 52 0.0 1.0 0.00 0.00 0.00 81 1018.6
20260509232045 52 0.0 0.0 0.00 0.00 0.00 83 1018.8
20260509231025 52 0.0 0.0 0.00 0.00 0.00 81 1018.9
20260509230045 52 0.0 1.0 0.00 0.00 0.00 80 1019.0
20260509225025 52 0.0 1.0 0.00 0.00 0.00 81 1019.1
20260509224045 52 0.0 0.0 0.00 0.00 0.00 80 1019.3
20260509223025 52 0.0 1.0 0.00 0.00 0.00 79 1019.3
20260509222025 52 0.0 1.0 0.00 0.00 0.00 79 1019.4
20260509221025 52 0.0 1.0 0.00 0.00 0.00 78 1019.3
20260509220025 53 0.0 0.0 0.00 0.00 0.00 76 1019.4
20260509215025 53 0.0 0.0 0.00 0.00 0.00 75 1019.4
20260509214025 53 0.0 0.0 0.00 0.00 0.00 76 1019.5
20260509213025 53 0.0 0.0 0.00 0.00 0.00 76 1019.6
20260509212025 53 0.0 0.0 0.00 0.00 0.00 78 1019.6
20260509211025 53 0.0 0.0 0.00 0.00 0.00 78 1019.6
20260509210025 53 0.0 0.0 0.00 0.00 0.00 73 1019.5
20260509205025 53 0.0 0.0 0.00 0.00 0.00 76 1019.7
20260509204045 53 0.0 0.0 0.00 0.00 0.00 75 1019.7
20260509203025 53 0.0 0.0 0.00 0.00 0.00 76 1019.6
20260509202025 53 0.0 0.0 0.00 0.00 0.00 77 1019.7
20260509201025 52 0.0 0.0 0.00 0.00 0.00 79 1019.6
20260509200025 52 0.0 0.0 0.00 0.00 0.00 81 1019.5
20260509195024 53 0.0 0.0 0.00 0.00 0.00 76 1019.5
20260509194025 54 0.0 0.0 0.00 0.00 0.00 73 1019.5
20260509193024 54 0.0 0.0 0.00 0.00 0.00 72 1019.5
20260509192025 54 0.0 0.0 0.00 0.00 0.00 72 1019.5
20260509191025 55 0.0 0.0 0.00 0.00 0.00 71 1019.4
20260509190025 55 0.0 0.0 0.00 0.00 0.00 70 1019.5
20260509185044 55 0.0 0.0 0.00 0.00 0.00 69 1019.4
20260509184024 55 0.0 0.0 0.00 0.00 0.00 71 1019.3
20260509183025 55 0.0 1.0 0.00 0.00 0.00 70 1019.3
20260509182024 56 0.0 1.0 0.00 0.00 0.00 67 1019.3
20260509181124 56 0.0 2.0 0.00 0.00 0.00 67 1019.4
20260509180024 56 158 1.0 3.0 0.00 0.00 0.00 67 1019.3
20260509175044 56 135 1.0 3.0 0.00 0.00 0.00 66 1019.3
20260509174024 57 135 2.0 5.0 0.00 0.00 0.00 65 1019.2
20260509173025 58 135 2.0 4.0 0.00 0.00 0.00 65 1019.3
20260509172025 57 135 2.0 4.0 0.00 0.00 0.00 64 1019.3
20260509171024 58 135 3.0 8.0 0.00 0.00 0.00 62 1019.3
20260509170024 59 135 5.0 10.0 0.00 0.00 0.00 60 1019.4
20260509165044 59 0 1.0 8.0 0.00 0.00 0.00 61 1019.4
20260509164024 59 0 3.0 8.0 0.00 0.00 0.00 61 1019.4
20260509163024 60 135 5.0 9.0 0.00 0.00 0.00 59 1019.5
20260509162024 60 135 3.0 7.0 0.00 0.00 0.00 60 1019.4
20260509161024 60 135 6.0 10.0 0.00 0.00 0.00 58 1019.6
20260509160024 60 135 3.0 9.0 0.00 0.00 0.00 60 1019.6
20260509155024 60 158 1.0 5.0 0.00 0.00 0.00 61 1019.7
20260509154024 60 0.0 2.0 0.00 0.00 0.00 60 1019.9
20260509153024 61 0.0 2.0 0.00 0.00 0.00 60 1020.0
20260509152024 62 0 2.0 4.0 0.00 0.00 0.00 64 1020.1
20260509151024 63 0 1.0 2.0 0.00 0.00 0.00 57 1020.2